Content
SEND FEEDBACK

Daily
Averages
Monthly
Summary
United States of America

GARDENDALE, TEXAS


Home > North America > United States > Texas
Elevation: 3171 feet     Latitude: 32 19N     Longitude: 102 32W

WEATHER
 
SELECT A DAY
Number of Records: 48,792;   Date Range: 4/17/12 - 7/15/14
 
SHARE

PRINT THIS DATA

[ ← Previous Day ]
WEATHER ALMANAC - JANUARY 31, 2013
[ Next Day → ]
[ °C ]   °F
Weather ElementAverageHighLow
Temperature46.6 °F62.1 °F (3:35 pm)34 °F (7:55 am)
Dewpoint14.2 °F22.3 °F (11:35 pm)5.9 °F (1:15 am)
Humidity28.3 %46 % (11:35 pm)17 % (4:15 pm)
Barometer30.17 in30.24 in (10:15 pm)30.13 in (4:55 am)
Wind Speed9.1 mph23 mph (10:55 am)
Wind Gust33.4 mph (10:35 am)
Weather ElementAverage
Visibility10 mi
Wind DirectionWSW (236.7 °)

Weather ElementTotal
Precipitation---
Heating Degree Days17 (Base 65)
Averaged from 66 records on January 31, 2013
WEATHER CONDITIONS BREAKOUT
WIND DIRECTION BREAKOUT
WEATHER BY HOUR - JANUARY 31, 2013
[ °C ]   °F
Local TimeTemperatureDewpointHumidityBarometerVisibilityWind DirectionWind SpeedGust SpeedPrecipitationEventsConditions
12:35 AM38.8 °F7.7 °F28 %30.14 in10.0 miWSW (250°)9.2 mphClear
12:55 AM37.6 °F7.5 °F29 %30.14 in10.0 miWSW (240°)9.2 mphClear
1:15 AM37.8 °F5.9 °F27 %30.14 in10.0 miSW (230°)9.2 mphClear
1:35 AM36.5 °F6.4 °F29 %30.14 in10.0 miSW (230°)10.4 mphClear
1:55 AM35.2 °F7.0 °F31 %30.14 in10.0 miWSW (240°)10.4 mphClear
2:15 AM36.0 °F7.2 °F30 %30.14 in10.0 miSW (230°)13.8 mphClear
2:35 AM35.2 °F7.9 °F32 %30.15 in10.0 miWSW (240°)10.4 mphClear
2:55 AM35.8 °F8.2 °F32 %30.15 in10.0 miWSW (250°)9.2 mphClear
3:15 AM34.7 °F9.1 °F35 %30.15 in10.0 miWSW (240°)9.2 mphClear
3:35 AM35.1 °F9.0 °F34 %30.14 in10.0 miWSW (250°)11.5 mphClear
3:55 AM35.8 °F8.6 °F32 %30.14 in10.0 miWSW (250°)9.2 mphClear
4:15 AM34.9 °F8.6 °F34 %30.14 in10.0 miWSW (250°)9.2 mphClear
4:35 AM34.7 °F8.8 °F34 %30.14 in10.0 miWSW (250°)12.7 mphClear
4:55 AM34.9 °F8.8 °F34 %30.13 in10.0 miWSW (250°)10.4 mphClear
5:15 AM34.2 °F9.1 °F35 %30.13 in10.0 miWest (260°)5.8 mphClear
5:35 AM35.6 °F8.6 °F33 %30.13 in10.0 miWNW (290°)12.7 mphClear
5:55 AM34.2 °F8.6 °F34 %30.13 in10.0 miWest (280°)5.8 mphClear
6:15 AM36.7 °F8.4 °F31 %30.14 in10.0 miWest (270°)8.1 mphClear
6:35 AM36.5 °F8.2 °F31 %30.14 in10.0 miWest (270°)10.4 mphClear
6:55 AM35.1 °F8.6 °F33 %30.14 in10.0 miWest (270°)5.8 mphClear
7:15 AM34.5 °F9.5 °F35 %30.14 in10.0 miWest (260°)6.9 mphClear
7:35 AM34.2 °F10.0 °F37 %30.15 in10.0 miWest (270°)5.8 mphClear
7:55 AM34.0 °F9.9 °F37 %30.16 in10.0 miWest (280°)4.6 mphClear
8:15 AM35.8 °F10.2 °F35 %30.16 in10.0 miWest (270°)5.8 mphClear
8:35 AM37.8 °F10.4 °F32 %30.17 in10.0 miWest (280°)8.1 mphClear
8:55 AM39.2 °F11.3 °F32 %30.18 in10.0 miWest (280°)9.2 mphClear
9:15 AM42.1 °F12.2 °F30 %30.19 in10.0 miWest (270°)8.1 mphClear
9:35 AM46.8 °F13.5 °F26 %30.21 in10.0 miWest (280°)10.4 mph16.1 mphClear
9:55 AM48.7 °F13.8 °F25 %30.21 in10.0 miWest (280°)13.8 mph17.3 mphClear
10:15 AM50.7 °F14.7 °F24 %30.21 in10.0 miWest (280°)16.1 mph19.6 mphClear
10:35 AM54.0 °F17.8 °F24 %30.21 in10.0 miWNW (300°)21.9 mph33.4 mphClear
10:55 AM55.0 °F18.5 °F24 %30.22 in10.0 miWNW (290°)23.0 mph29.9 mphClear
11:15 AM54.7 °F19.0 °F25 %30.22 in10.0 miWNW (300°)21.9 mph31.1 mphClear
11:35 AM55.2 °F18.5 °F24 %30.21 in10.0 miWNW (290°)18.4 mph27.6 mphClear
11:55 AM56.3 °F18.7 °F23 %30.21 in10.0 miWNW (300°)15.0 mph23.0 mphClear
12:15 PM57.6 °F19.2 °F23 %30.19 in10.0 miWNW (300°)15.0 mph24.2 mphClear
12:35 PM58.3 °F19.9 °F23 %30.19 in10.0 miNW (310°)17.3 mph25.3 mphClear
12:55 PM58.1 °F19.9 °F23 %30.18 in10.0 miNNW (330°)15.0 mph21.9 mphClear
1:15 PM58.3 °F21.2 °F24 %30.16 in10.0 miNW (320°)15.0 mph23.0 mphClear
1:35 PM59.4 °F19.9 °F22 %30.15 in10.0 miNW (310°)13.8 mph18.4 mphClear
1:55 PM59.5 °F19.4 °F21 %30.14 in10.0 miNW (310°)15.0 mph20.7 mphClear
2:15 PM60.3 °F20.1 °F21 %30.14 in10.0 miNW (310°)15.0 mphClear
2:35 PM61.0 °F18.3 °F19 %30.14 in10.0 miNW (310°)11.5 mph17.3 mphClear
2:55 PM61.3 °F17.6 °F18 %30.15 in10.0 miNW (310°)11.5 mph18.4 mphClear
3:15 PM60.8 °F16.7 °F18 %30.15 in10.0 miNW (310°)5.8 mph9.2 mphClear
3:35 PM62.1 °F18.0 °F18 %30.16 in10.0 miNW (320°)11.5 mph17.3 mphClear
3:55 PM62.1 °F17.1 °F18 %30.15 in10.0 miNorth (360°)9.2 mph16.1 mphClear
4:15 PM61.7 °F15.8 °F17 %30.15 in10.0 miNNW (340°)8.1 mph16.1 mphClear
4:35 PM61.2 °F15.8 °F17 %30.15 in10.0 miNNW (330°)9.2 mph16.1 mphClear
4:55 PM61.2 °F15.8 °F17 %30.15 in10.0 miNNW (330°)3.5 mphClear
5:15 PM60.6 °F15.8 °F17 %30.16 in10.0 miNNW (340°)9.2 mphClear
5:35 PM59.7 °F16.0 °F18 %30.16 in10.0 miNNW (340°)5.8 mphClear
6:15 PM56.5 °F16.5 °F21 %30.18 in10.0 miCalmClear
6:35 PM53.6 °F17.4 °F24 %30.18 in10.0 miCalmClear
7:15 PM50.0 °F16.7 °F27 %30.19 in10.0 miNorth (10°)3.5 mphClear
7:35 PM51.1 °F17.2 °F26 %30.20 in10.0 miCalmClear
7:55 PM48.9 °F17.2 °F28 %30.20 in10.0 miEast (80°)3.5 mphClear
8:15 PM47.3 °F17.6 °F31 %30.20 in10.0 miEast (100°)4.6 mphClear
8:35 PM46.2 °F18.3 °F33 %30.21 in10.0 miCalmClear
9:15 PM46.2 °F19.4 °F34 %30.23 in10.0 miCalmClear
9:35 PM46.6 °F17.8 °F32 %30.22 in10.0 miSSE (160°)3.5 mphClear
10:15 PM42.6 °F19.0 °F39 %30.24 in10.0 miSE (140°)3.5 mphClear
10:35 PM43.3 °F20.5 °F40 %30.24 in10.0 miSouth (190°)4.6 mphClear
10:55 PM43.2 °F18.3 °F37 %30.23 in10.0 miCalmClear
11:15 PM41.2 °F20.7 °F44 %30.23 in10.0 miSouth (190°)3.5 mphClear
11:35 PM41.5 °F22.3 °F46 %30.24 in10.0 miCalmClear
Hourly data recorded from KE11, located miles away from Gardendale, Texas







STORIES FROM OUR PARTNERS